Overview Statistics Trail Chart Weather Telemetry Raw packets
 

This is the latest recevied weather packets stored in our database for station/object OK2ILA-10. If no packets are shown the sender has not sent any weather packets the latest 10 day(s).

<< 60 61 62 63 64 65 66 >>
Time Temp. Humidity Pressure Rain* Wind** Luminosity Snow
1788180715 25° C 53% 1016.7 hPa - - - -
1788180711 25° C 53% 1016.7 hPa - - - -
1788180111 25.56° C 53% 1016.8 hPa - - - -
1788179515 25.56° C 53% 1016.8 hPa - - - -
1788179510 25.56° C 53% 1016.8 hPa - - - -
1788178910 25° C 55% 1016.8 hPa - - - -
1788178314 24.44° C 57% 1016.9 hPa - - - -
1788178310 24.44° C 57% 1016.9 hPa - - - -
1788177710 23.89° C 58% 1016.9 hPa - - - -
1788177114 22.78° C 60% 1016.8 hPa - - - -
1788177110 22.78° C 60% 1016.8 hPa - - - -
1788176514 21.67° C 61% 1017.1 hPa - - - -
1788176510 21.67° C 61% 1017.1 hPa - - - -
1788175914 21.67° C 61% 1017 hPa - - - -
1788175909 21.67° C 61% 1017 hPa - - - -
1788175313 22.22° C 61% 1016.9 hPa - - - -
1788175309 22.22° C 61% 1016.9 hPa - - - -
1788174713 22.78° C 60% 1016.7 hPa - - - -
1788174709 22.78° C 60% 1016.7 hPa - - - -
1788174113 22.78° C 59% 1016.6 hPa - - - -
1788174109 22.78° C 59% 1016.6 hPa - - - -
1788173513 23.33° C 59% 1016.6 hPa - - - -
1788173508 23.33° C 59% 1016.6 hPa - - - -
1788172913 23.33° C 58% 1016.7 hPa - - - -
1788172908 23.33° C 58% 1016.7 hPa - - - -

* Rain since midnight (hover to see other rain measurements)
** Current wind speed in m/s (hover to see current wind gust speed)